sat.trackr.live / text

‹ back to catalog

SHUNTIAN

NORAD 44886 · 2019-093H

PAYLOAD ACTIVE UNKNOWN

§ Identity

Operator
Country
PRC
Launch date
2019-12-20
Launch site
TAISC
Launch vehicle
Mass (kg)
RCS (m²)

External: N2YO · Heavens-Above · Gunter

§ Orbital elements

Epoch: 2026-09-20T05:28:03.621216Z

Period
96.29 min
Inclination
97.7978°
Eccentricity
0.0012884
Mean motion
14.95525092 rev/d
Perigee alt
571.8 km
Apogee alt
589.7 km
Semi-major
6,958.9 km
B*
5.9394e-5
RAAN
350.9114°
Arg perigee
106.1476°
Mean anomaly
254.1164°
Rev number
36,638

§ Raw data

SHUNTIAN1 44886U 19093H   26263.22781969  .00000600  00000+0  59394-4 0  99942 44886  97.7978 350.9114 0012884 106.1476 254.1164 14.95525092366381

JSON: /api/v1/satellites/44886 · /tle

For live sub-satellite position, see the globe view (requires WebGL).

§ Visibility from observer

Set your observer location to see the next 7 days of passes ≥ 10°. The values pass through the URL so the page stays shareable.

No JS? Fill the form by hand. The geolocation button needs JavaScript.

§ Radio — SatNOGS DB

ModeDescriptionDownlinkUplink
FM Mode U 401.952 MHz

1 transmitter · refreshed weekly from db.satnogs.org